CW3224 Weather Reports


Display with metric or nautical units.
time (UTC)temp
F
wind
direction
speed
MPH
gust
MPH
rain 1hr
in
rain 24hr
in
rain mn
in
humidity
%
barometer
mb
20260903145235 64 301 0.0 0.0 0.00 0.16 0.16 94 1013.7
20260903144235 64 301 0.0 0.0 0.00 0.16 0.16 94 1013.8
20260903143728 64 301 0.0 0.0 0.00 0.16 0.16 93 1013.8
20260903142235 64 301 0.0 0.0 0.00 0.16 0.16 94 1013.8
20260903141237 63 301 0.0 0.0 0.00 0.16 0.16 94 1014.0
20260903140219 63 142 0.0 0.0 0.00 0.16 0.16 94 1014.0
20260903135219 63 142 0.0 0.0 0.00 0.16 0.16 94 1014.3
20260903134219 62 301 0.0 0.0 0.00 0.16 0.16 94 1014.1
20260903133219 62 301 0.0 0.0 0.00 0.16 0.16 93 1014.1
20260903132220 62 301 0.0 0.0 0.00 0.16 0.16 93 1014.0
20260903131210 62 301 0.0 0.0 0.00 0.16 0.16 93 1014.2
20260903130209 62 301 0.0 0.0 0.00 0.16 0.16 93 1014.2
20260903125209 62 301 0.0 0.0 0.00 0.16 0.16 93 1014.3
20260903124208 62 301 0.0 0.0 0.00 0.16 0.16 93 1014.5
20260903123207 62 301 0.0 0.0 0.00 0.16 0.16 93 1014.5
20260903122208 62 301 0.0 0.0 0.00 0.16 0.16 93 1014.6
20260903121153 62 301 0.0 0.0 0.00 0.16 0.16 93 1014.6
20260903120152 61 301 0.0 0.0 0.00 0.16 0.16 93 1014.6
20260903115154 61 301 0.0 1.0 0.00 0.16 0.16 93 1014.9
20260903114153 61 301 0.0 1.0 0.00 0.16 0.16 93 1014.9
20260903113634 61 301 0.0 0.0 0.00 0.16 0.16 93 1014.9
20260903112153 61 301 0.0 0.0 0.00 0.16 0.16 93 1014.9
20260903111152 61 301 0.0 0.0 0.00 0.16 0.16 93 1014.9
20260903110152 61 143 0.0 0.0 0.00 0.16 0.16 92 1014.9
20260903105152 61 143 0.0 0.0 0.00 0.16 0.16 92 1014.9
20260903104150 61 143 0.0 0.0 0.01 0.16 0.16 92 1014.9
20260903103154 61 143 0.0 0.0 0.02 0.16 0.16 92 1014.9
20260903102151 61 143 0.0 0.0 0.02 0.16 0.16 92 1014.9
20260903101617 61 143 0.0 0.0 0.05 0.16 0.16 92 1014.8
20260903100138 61 143 0.0 0.0 0.06 0.16 0.16 92 1014.8
20260903095137 61 143 0.0 1.0 0.07 0.16 0.16 92 1014.9
20260903094611 61 143 0.0 2.0 0.08 0.15 0.15 91 1015.0
20260903093136 61 143 0.0 0.0 0.07 0.14 0.14 91 1015.0
20260903092138 61 143 0.0 0.0 0.07 0.14 0.14 91 1015.5
20260903091131 61 143 0.0 0.0 0.04 0.11 0.11 91 1015.3
20260903090131 61 143 0.0 2.0 0.03 0.10 0.10 91 1015.3
20260903085130 62 176 0.0 3.0 0.03 0.07 0.09 90 1015.4
20260903084130 62 202 0.0 2.0 0.07 0.07 0.07 90 1015.4
20260903083607 62 202 0.0 0.0 0.07 0.07 0.07 89 1015.4
20260903082129 62 203 0.0 0.0 0.07 0.07 0.07 89 1015.5
20260903081129 63 203 0.0 0.0 0.07 0.07 0.07 88 1015.2
20260903080128 63 202 0.0 2.0 0.07 0.07 0.07 87 1015.2
20260903075128 63 301 1.0 4.0 0.04 0.04 0.05 86 1015.5
20260903074128 63 214 0.0 4.0 0.00 0.00 0.00 86 1015.5
20260903073129 63 153 1.0 3.0 0.00 0.00 0.00 86 1015.5
20260903072603 63 191 0.0 3.0 0.00 0.00 0.00 86 1015.7
20260903071125 63 173 0.0 4.0 0.00 0.00 0.00 86 1015.7
20260903070121 63 148 0.0 3.0 0.00 0.00 0.00 86 1015.7
20260903065559 63 169 1.0 6.0 0.00 0.00 0.00 86 1016.0
20260903064120 63 180 2.0 7.0 0.00 0.00 0.00 86 1016.7
20260903063120 63 209 1.0 3.0 0.00 0.00 0.00 86 1016.7
20260903062120 63 153 1.0 5.0 0.00 0.00 0.00 86 1017.0
20260903061120 63 91 0.0 4.0 0.00 0.00 0.00 86 1017.4
20260903060121 63 181 0.0 4.0 0.00 0.00 0.00 86 1017.4
20260903055121 63 191 1.0 4.0 0.00 0.00 0.00 86 1017.7
20260903054104 63 211 0.0 4.0 0.00 0.00 0.00 86 1018.1
20260903053104 63 179 0.0 2.0 0.00 0.00 0.00 86 1018.1
20260903052103 63 224 1.0 5.0 0.00 0.00 0.00 86 1017.7
20260903051535 63 193 1.0 4.0 0.00 0.00 0.00 86 1017.5
20260903050101 64 206 1.0 5.0 0.00 0.00 0.00 86 1017.5
20260903045054 64 138 1.0 5.0 0.00 0.00 0.00 87 1017.9
20260903044054 64 169 0.0 3.0 0.00 0.00 0.00 86 1018.3
20260903043054 64 169 0.0 4.0 0.00 0.00 0.00 86 1018.3
20260903043017 64 185 0.0 3.0 0.00 0.00 0.00 86 1018.2
20260903041057 64 185 0.0 2.0 0.00 0.00 0.00 86 1018.2
20260903040054 64 185 0.0 2.0 0.00 0.00 0.00 86 1018.2
20260903040014 64 188 0.0 0.0 0.00 0.00 0.00 86 1018.1
20260903034048 64 188 0.0 0.0 0.00 0.00 0.00 85 1018.2
20260903033047 64 188 0.0 3.0 0.00 0.00 0.00 86 1018.2
20260903032045 64 189 0.0 2.0 0.00 0.00 0.00 85 1018.7
20260903031043 64 189 0.0 3.0 0.00 0.00 0.00 85 1018.7
20260903030044 64 173 0.0 0.0 0.00 0.00 0.00 85 1018.7
20260903025043 64 173 0.0 0.0 0.00 0.00 0.00 85 1019.1
20260903024042 64 173 0.0 0.0 0.00 0.00 0.00 85 1019.1
20260903023035 64 173 0.0 0.0 0.00 0.00 0.00 84 1019.1
20260903022033 64 173 0.0 0.0 0.00 0.00 0.00 84 1019.1
20260903021033 65 173 0.0 0.0 0.00 0.00 0.00 84 1019.1
20260903020032 65 173 0.0 0.0 0.00 0.00 0.00 84 1019.1
20260903015507 65 173 0.0 0.0 0.00 0.00 0.00 84 1019.3
20260903014031 65 173 1.0 4.0 0.00 0.00 0.00 83 1019.2
20260903013032 65 168 1.0 4.0 0.00 0.00 0.00 82 1019.2
20260903012031 65 231 2.0 8.0 0.00 0.00 0.00 82 1018.7
20260903011508 65 152 2.0 5.0 0.00 0.00 0.00 82 1019.0
20260903010031 65 161 1.0 6.0 0.00 0.00 0.00 81 1019.0
20260903005509 65 140 0.0 7.0 0.00 0.00 0.00 81 1019.0
20260903004030 66 184 1.0 7.0 0.00 0.00 0.00 80 1019.1
20260903003020 66 140 1.0 5.0 0.00 0.00 0.00 80 1019.1
20260903002019 66 208 2.0 6.0 0.00 0.00 0.00 79 1019.2
20260903001020 66 151 0.0 3.0 0.00 0.00 0.00 78 1019.2
20260903000019 66 173 0.0 4.0 0.00 0.00 0.00 77 1019.2
20260902235018 67 187 0.0 0.0 0.00 0.00 0.00 76 1019.7
20260902234019 67 157 0.0 0.0 0.00 0.00 0.00 75 1019.8
20260902233019 67 168 0.0 0.0 0.00 0.00 0.00 75 1019.8
20260902232019 67 152 0.0 1.0 0.00 0.00 0.00 73 1019.8
20260902231020 67 170 1.0 4.0 0.00 0.00 0.00 73 1019.9
20260902230009 67 181 1.0 4.0 0.00 0.00 0.00 71 1019.9
20260902225009 68 184 0.0 3.0 0.00 0.00 0.00 71 1019.8
20260902224008 68 164 0.0 0.0 0.00 0.00 0.00 74 1020.1
20260902223007 68 164 0.0 2.0 0.00 0.00 0.00 73 1020.1
20260902222006 69 301 0.0 1.0 0.00 0.00 0.00 71 1020.3
20260902221451 69 166 1.0 5.0 0.00 0.00 0.00 71 1020.2
20260902220009 69 140 0.0 6.0 0.00 0.00 0.00 70 1020.0
20260902215005 69 157 1.0 7.0 0.00 0.00 0.00 69 1020.0
20260902214005 69 66 0.0 3.0 0.00 0.00 0.00 69 1019.9
20260902213910 69 137 0.0 0.0 0.00 0.00 0.00 69 1019.9
20260902212001 70 123 0.0 4.0 0.00 0.00 0.00 70 1019.9
20260902211002 70 128 1.0 7.0 0.00 0.00 0.00 69 1019.5
20260902205954 70 119 1.0 5.0 0.00 0.01 0.00 71 1019.5
20260902205908 70 125 1.0 3.0 0.00 0.01 0.00 70 1019.8
20260902203955 71 166 0.0 3.0 0.00 0.02 0.00 70 1020.2
20260902202955 71 178 0.0 4.0 0.00 0.03 0.00 69 1020.2
20260902202437 71 51 0.0 3.0 0.00 0.04 0.00 66 1020.3
20260902200953 71 92 1.0 8.0 0.00 0.05 0.00 65 1020.5
20260902195954 71 75 0.0 6.0 0.00 0.05 0.00 67 1020.4
20260902194952 71 107 0.0 1.0 0.00 0.07 0.00 68 1020.4
20260902193951 71 248 0.0 5.0 0.00 0.08 0.00 66 1020.7
20260902192952 72 104 0.0 4.0 0.00 0.09 0.00 67 1020.8
20260902191951 72 145 0.0 0.0 0.00 0.11 0.00 69 1020.8
20260902190951 72 137 0.0 3.0 0.00 0.11 0.00 69 1020.8
20260902185951 72 139 0.0 7.0 0.00 0.14 0.00 69 1020.6
20260902184950 72 112 1.0 8.0 0.00 0.18 0.00 67 1020.6
20260902183951 72 148 1.0 7.0 0.00 0.25 0.00 66 1020.8
20260902182952 72 123 1.0 9.0 0.00 0.31 0.00 68 1020.7
20260902181948 73 9 0.0 4.0 0.00 0.38 0.00 68 1020.7
20260902180950 72 155 0.0 5.0 0.00 0.42 0.00 71 1020.8
20260902175949 72 341 0.0 1.0 0.00 0.43 0.00 70 1020.8
20260902174949 72 66 0.0 1.0 0.00 0.43 0.00 72 1020.8
20260902173948 72 177 0.0 4.0 0.00 0.43 0.00 72 1020.6
20260902172952 72 68 0.0 4.0 0.00 0.43 0.00 73 1020.8
20260902171940 72 168 0.0 0.0 0.00 0.43 0.00 72 1020.8
20260902170938 72 52 1.0 7.0 0.00 0.44 0.00 70 1020.8
20260902165939 72 146 1.0 6.0 0.00 0.44 0.00 73 1021.0
20260902164939 72 256 2.0 7.0 0.00 0.45 0.00 74 1021.0
20260902163938 71 153 1.0 7.0 0.00 0.46 0.00 76 1021.3
20260902163419 71 169 0.0 3.0 0.00 0.47 0.00 81 1021.4
20260902161936 70 146 1.0 6.0 0.00 0.47 0.00 80 1021.4
20260902160937 70 147 2.0 6.0 0.00 0.47 0.00 81 1021.7
20260902155937 70 236 1.0 5.0 0.00 0.47 0.00 82 1021.8
20260902155412 69 58 1.0 4.0 0.00 0.47 0.00 85 1021.8
20260902153938 69 204 1.0 4.0 0.00 0.47 0.00 85 1022.0
20260902152931 68 92 1.0 4.0 0.00 0.47 0.00 85 1022.0
20260902151928 67 154 1.0 6.0 0.00 0.47 0.00 87 1022.0
20260902150929 67 126 0.0 3.0 0.00 0.47 0.00 91 1021.9
20260902150408 66 301 0.0 4.0 0.00 0.47 0.00 92 1022.1